Volver al catálogo

NIMBUS 2 DEB

ActivoLEO
NORAD 39294·DEBRIS·🇺🇸 United States

Lanzado May 15, 1966 desde Vandenberg Space Force Base

Loading…

Próximos Pases (próximas 24 horas)

TLE

ActualizadoSource: Space-Track

Época: Sep 14, 2026, 04:14 UTC

1 39294U 66040BC  26257.17682462  .00001232  00000-0  20742-2 0  9996
2 39294 100.4404 165.0663 0058391 324.0703  35.6508 13.47457052631672

Sigue NIMBUS 2 DEB en tiempo real con AllMySat

Download on the App Store